Location: Newark
(42.8481°N, 0.4872°E)
Time: 08:53:44
(UTC+00:00)

SR - Pass Details

Date: 06 November 2020
Orbit: 579 x 876 km, 66.7° (Epoch: 29 November)

Event Time Altitude Azimuth Distance (km) Brightness Sun altitude
Rises 23:16:55 0° 194° (SSW) 2,779 - -63.0°
Reaches altitude 10° 23:19:09 10° 189° (S) 1,887 - -63.1°
Maximum altitude 23:23:12 47° 115° (ESE) 784 - -63.2°
Drops below altitude 10° 23:27:24 10° 42° (NE) 1,969 - -63.3°
Sets 23:29:47 0° 36° (NE) 2,915 - -63.4°
